Delta Virtual Airport Information Service

New York John F. Kennedy International Airport

ICAO: KJFK Country: United States
Latitude: 40.6398 Longitude: -73.7789
Latest Arrival : DAL1108 (B) (KLAX-KJFK) Latest Departure : DAL1064 (1C) (KJFK-KSFO)


WX CaptureLIVE
Data provided by noaa.gov | Fetched at 08:33:35

METAR : KJFK 061351Z 32015G23KT 10SM BKN050 01/M10 A3006 RMK AO2 PK WND 31027/1259 SLP178 T00061100

TAF : KJFK 061130Z 0612/0718 29010G18KT P6SM SCT050 FM061500 29015G20KT P6SM BKN040 FM070000 31010KT P6SM BKN040 FM070800 32007KT P6SM FEW250


Runway Data for KJFK
Data provided by openaviationdata.com

Runway ID Mag Var Hdg Length Elevation Surface ILS Freq ILS Id ILS Slope
04L -14 44° 11353 ft 13 ft Asphalt 110.9 IHIQ 3
04R -14 44° 8401 ft 13 ft Asphalt 109.5 IJFK 3
13L -14 134° 9992 ft 13 ft Asphalt 111.5 ITLK 3
13R -14 134° 14564 ft 13 ft Asphalt -- -- --
22L -14 224° 8401 ft 13 ft Asphalt 110.9 IIWY 3
22R -14 224° 11353 ft 13 ft Asphalt 109.5 IJOC 3
31L -14 314° 14564 ft 13 ft Asphalt 111.35 IMOH 3
31R -14 314° 9992 ft 13 ft Asphalt 111.5 IRTH 3

New York John F. Kennedy International Airport, United States
Use only for reference purposes



Not for navigational purposes.